Content
SEND FEEDBACK

Daily
Averages
Monthly
Summary
United States of America

PUT IN BAY, OHIO


Home > North America > United States > Ohio
Elevation: 171 meters     Latitude: 41 39N     Longitude: 082 48W

WEATHER
 
SELECT A DAY
Number of Records: 122,490;   Date Range: 12/10/00 - 7/20/14
 
SHARE

PRINT THIS DATA

[ ← Previous Day ]
WEATHER ALMANAC - 15 OCTOBER, 2013
[ Next Day → ]
[ °F ]   °C
Weather ElementAverageHighLow
Temperature12.3 °C17.2 °C (11:00 pm)6 °C (7:00 am)
Dewpoint10.4 °C15.9 °C (11:00 pm)4.6 °C (4:00 am)
Humidity87.5 %95 % (9:00 am)82 % (2:00 am)
Barometer1017.9 hPa1024 hPa (1:00 am)1010.8 hPa (11:00 pm)
Wind Speed10.6 km/h20.4 km/h (7:00 pm)
Weather ElementAverage
Wind DirectionESE (118.9 °)

Weather ElementTotal
Precipitation2.54 mm
Heating Degree Days6.7 (Base 18.3)
Growing Degree Days1.6 (Base 10)
Averaged from 27 records on 15 October, 2013
WEATHER CONDITIONS BREAKOUT
WIND DIRECTION BREAKOUT
WEATHER BY HOUR - 15 OCTOBER, 2013
[ °F ]   °C
Local TimeTemperatureDewpointHumidityBarometerVisibilityWind DirectionWind SpeedGust SpeedPrecipitationEventsConditions
1:00 AM7.3 °C5.1 °C86 %1024 hPaNE (50°)5.6 km/h
2:00 AM7.2 °C5 °C82 %1023.4 hPaNE (50°)7.4 km/h
2:00 AM7.4 °C5.1 °C85 %1023.4 hPaNE (50°)7.4 km/h
3:00 AM7.2 °C5 °C86 %1022.4 hPaNE (50°)5.6 km/h
4:00 AM6.6 °C4.6 °C87 %1022 hPaNE (50°)1.9 km/h
5:00 AM6.7 °C5.4 °C91 %1021.7 hPaNE (50°)3.7 km/h
6:00 AM6.1 °C5 °C93 %1021.3 hPaNNE (30°)3.7 km/h
7:00 AM6 °C5 °C93 %1021.3 hPaNE (40°)3.7 km/h
8:00 AM6.1 °C5 °C90 %1020.7 hPaENE (60°)3.7 km/h
8:00 AM6.2 °C5 °C92 %1020.7 hPaENE (60°)3.7 km/h0.25 mm
9:00 AM9.6 °C8.8 °C95 %1020.3 hPaCalm0.51 mm
10:00 AM14.5 °C11.9 °C84 %1020 hPaSSE (150°)7.4 km/h
11:00 AM15.2 °C12.4 °C83 %1019.3 hPaSSE (160°)13 km/h
12:00 PM15.8 °C13.2 °C85 %1018.6 hPaSouth (170°)13 km/h
1:00 PM15.4 °C13.5 °C88 %1017.9 hPaSSE (160°)18.5 km/h
2:00 PM15.6 °C13.3 °C83 %1016.9 hPaSouth (170°)14.8 km/h
2:00 PM15.8 °C13.5 °C86 %1016.9 hPaSouth (170°)14.8 km/h
3:00 PM15.3 °C13.2 °C87 %1016.6 hPaSouth (190°)11.1 km/h
4:00 PM16.1 °C14 °C87 %1015.2 hPaSouth (180°)14.8 km/h
5:00 PM16.4 °C13.9 °C85 %1014.2 hPaSSE (150°)13 km/h
6:00 PM16.4 °C13.9 °C85 %1013.2 hPaSSE (150°)16.7 km/h
7:00 PM16.5 °C14.3 °C87 %1013.2 hPaSSE (160°)20.4 km/h
8:00 PM16.7 °C14.4 °C83 %1012.5 hPaSouth (180°)16.7 km/h
8:00 PM16.7 °C14.5 °C87 %1012.5 hPaSouth (180°)16.7 km/h
9:00 PM16.9 °C14.8 °C87 %1011.9 hPaSouth (170°)14.8 km/h
10:00 PM16.6 °C15.4 °C93 %1011.9 hPaSouth (190°)16.7 km/h1.78 mm
11:00 PM17.2 °C15.9 °C92 %1010.8 hPaSouth (190°)18.5 km/h
Hourly data recorded from CXHA, located 0 kilometers away from Put In Bay, Ohio







STORIES FROM OUR PARTNERS